[[{"header":{"parameterUnit":"m.s-1","parameterCategory":1,"la1":30.2991,"la2":30.254,"lo1":-89.0895,"lo2":-89.0444,"dy":0.0017,"dx":0.0017,"nx":28,"ny":28,"refTime":"2023-08-11T09:00:00:Z","depth":0,"parameterNumber":2,"parameterNumberName":"U-component_of_WINDS"},"data":[0,0,0,0,0,0,0,0,0,0,0,0,0,0,0,0,0,0,0,0,0,0,0,0,0,0,0,0,0,0,0,0,0,0,0,0,0,0,0,0,0,0,0,0,0,0,0,0,0,0,0,0,0,0,0,0,0,0,3.8327,3.8328,0,3.8377,3.8378,3.8378,3.8292,3.8289,3.8287,3.8284,3.8336,3.834,3.8345,0,0,0,0,0,0,0,0,0,0,0,0,0,3.8155,3.8159,3.8327,3.8328,3.8328,3.8377,3.8378,3.8379,3.8293,3.8289,3.8286,3.8282,3.8335,3.834,3.8345,0,0,0,0,0,0,0,0,0,0,0,0,0,3.822,3.816,3.8327,3.8291,3.8289,3.8377,3.8378,3.8379,3.8294,3.8289,3.8285,3.8281,3.8333,3.8339,3.8346,3.8471,0,0,3.8364,3.8367,0,0,0,0,0,0,0,0,3.8217,3.8227,3.8296,3.8294,3.8291,3.8324,3.8337,3.841,3.8295,3.8292,3.8284,3.8279,3.8336,3.8342,3.8361,3.8474,3.8476,3.8365,3.8369,3.8371,3.8373,0,0,0,0,0,0,0,3.8212,3.8224,3.8347,3.8297,3.8294,3.8272,3.8277,3.835,3.8338,3.8292,3.8286,3.8293,3.8334,3.8355,3.8361,3.8477,3.8365,3.837,3.8374,3.8377,3.8691,3.8695,0,0,0,0,0,0,3.8212,3.8221,3.8345,3.8348,3.8242,3.8279,3.8284,3.8318,3.8337,3.8335,3.8296,3.8288,3.8347,3.8354,3.8363,3.8508,3.8371,3.8377,3.8381,3.8686,3.8692,3.8697,0,0,0,0,0,0,3.8209,3.8224,3.8343,3.8283,3.8296,3.8287,3.8325,3.8321,3.8342,3.834,3.8338,3.832,3.8343,3.8354,3.8444,3.8508,3.838,3.8386,3.8681,3.8688,3.8694,3.8801,0,0,0,0,0,0,3.8204,3.8224,3.8272,3.8285,3.83,3.8424,3.833,3.8325,3.8353,3.8343,3.8362,3.8361,3.8341,3.8435,3.845,3.8515,3.839,3.8675,3.8684,3.8692,3.8791,3.881,3.8827,0,0,0,0,0,3.8199,3.8301,3.8275,3.829,3.836,3.8428,3.8437,3.8411,3.8359,3.8406,3.8404,3.836,3.85,3.8445,3.8461,3.8529,3.8671,3.8681,3.8692,3.8783,3.8807,3.8826,0,0,0,0,0,0,3.8297,3.8302,3.8273,3.8383,3.8405,3.8413,3.8473,3.8437,3.8476,3.8465,3.8432,3.8437,3.8533,3.854,3.8479,3.8649,3.8576,3.859,3.864,3.8663,3.868,3.8675,3.8396,0,0,0,0,0,3.8331,3.8386,3.8388,3.8484,3.8497,3.8483,3.8512,3.849,3.8512,3.8522,3.8527,3.855,3.8598,3.8631,3.8676,3.8793,3.8794,3.8847,3.8864,3.8879,3.8891,3.8949,3.8971,3.8731,3.8731,3.8731,0,0,3.8403,3.8412,3.8449,3.8504,3.8519,3.8575,3.8492,3.8556,3.8597,3.8532,3.8615,3.862,3.8644,3.8746,3.8792,3.8755,3.8958,3.8892,3.8904,3.8908,3.8962,3.8985,3.9005,3.8738,3.8737,3.8736,0,0,3.8561,3.8576,3.8655,3.8672,3.8695,3.8684,3.8704,3.8717,3.8717,3.88,3.8751,3.88,3.8885,3.8903,3.8923,3.9085,3.9045,3.9101,3.9193,3.925,3.9269,3.9285,3.934,3.936,3.9114,3.9114,3.9114,0,3.8647,3.873,3.8701,3.8767,3.8792,3.8734,3.8813,3.8831,3.8868,3.8886,3.8844,3.8947,3.896,3.9064,3.9103,3.9123,3.9142,3.9098,3.9269,3.9285,3.93,3.9351,3.9372,3.912,3.912,3.9119,3.9118,0,3.8833,3.8891,3.8953,3.8988,3.902,3.9093,3.9073,3.9109,3.9084,3.9078,3.9162,3.9174,3.9219,3.9243,3.922,3.9343,3.9318,3.9274,3.9199,3.933,3.9377,3.9397,3.9129,3.9127,3.9125,3.9124,0,0,3.9055,3.9071,3.9094,3.9107,3.9128,3.9172,3.9242,3.9284,3.9313,3.9341,3.9397,3.9469,3.9426,3.9449,3.9428,3.9479,3.9602,3.9427,3.9427,3.9456,3.9734,3.9765,3.9788,3.9576,3.958,3.9583,3.973,0,3.9209,3.9328,3.9302,3.9418,3.947,3.9415,3.9475,3.9493,3.9489,3.9532,3.9527,3.9577,3.9519,3.9532,3.958,3.9577,3.9657,3.9566,3.9625,3.9628,3.9618,3.9814,3.9848,3.9986,3.9749,3.9752,3.9755,0,3.9406,3.9438,3.9559,3.9567,3.9588,3.9642,3.9677,3.972,3.9739,3.9732,3.9756,3.9724,3.9791,3.9718,3.9809,3.9748,3.9771,3.9773,3.9777,3.978,3.9697,3.9818,4.003,4.005,3.9785,3.9782,3.978,0,3.955,3.9625,3.9705,3.9719,3.9733,3.9771,3.9779,3.9793,3.9819,3.985,3.9866,3.9906,3.9927,3.9957,3.9936,3.9885,4.0029,3.9955,4.0023,4.0024,4.0054,4.0052,4.027,4.0075,4.0074,4.0074,4.0073,0,3.9724,3.9799,3.977,3.9819,3.9901,3.9871,3.9953,3.9954,3.9967,4.0014,3.9971,4.0016,3.9987,4.003,4.0014,4.0089,4.01,4.0095,4.0089,4.0097,4.0098,4.011,4.0098,4.0079,4.0078,4.0077,4.0076,0,3.9899,3.9883,3.9966,3.9971,3.9974,4.0034,4.0037,4.0082,4.0074,4.0135,4.0148,4.0135,4.0183,4.0165,4.0218,4.0207,4.0302,4.0286,4.0295,4.0289,4.0358,4.035,4.0588,4.0617,4.0407,4.0409,4.041,0,4.0009,4.0065,4.0075,4.0103,4.0113,4.016,4.0185,4.0157,4.0186,4.021,4.0252,4.0296,4.0329,4.0408,4.0403,4.0442,4.0424,4.0505,4.043,4.0434,4.0421,4.0417,4.042,4.0519,4.0522,4.0524,4.0525,0,4.0205,4.0193,4.0231,4.0267,4.0298,4.0325,4.0347,4.0373,4.0346,4.038,4.0427,4.0453,4.0505,4.0548,4.0582,4.0589,4.0552,4.0549,4.0566,4.0573,4.0575,4.0571,4.0332,4.0543,4.0541,4.054,4.0539,4.0538,4.0348,4.0394,4.0407,4.045,4.0464,4.0485,4.0527,4.0523,4.0562,4.0601,4.0582,4.0637,4.0652,4.0693,4.0705,4.0747,4.0715,4.0741,4.0747,4.0753,4.076,4.0571,4.0754,4.0753,4.0752,4.0752,4.0752,0,4.0538,4.0543,4.0584,4.0615,4.0649,4.0611,4.0633,4.0664,4.0712,4.0729,4.0762,4.0815,4.0856,4.0854,4.0892,4.0925,4.0909,4.0936,4.0932,4.0933,4.0788,4.0768,4.0948,4.0948,4.0948,4.0948,4.0948,4.0948,4.0641,4.0715,4.0705,4.0784,4.0789,4.0841,4.0857,4.0876,4.0888,4.0949,4.0983,4.0981,4.0989,4.1027,4.1062,4.106,4.1075,4.1107,4.1099,4.0963,4.0944,4.0925,4.0905,4.1112,4.1112,4.124,4.1241,4.1242]},{"header":{"parameterUnit":"m.s-1","parameterCategory":1,"la1":30.2991,"la2":30.254,"lo1":-89.0895,"lo2":-89.0444,"dy":0.0017,"dx":0.0017,"nx":28,"ny":28,"refTime":"2023-08-11T09:00:00:Z","depth":0,"parameterNumber":3,"parameterNumberName":"V-component_of_WINDS"},"data":[0,0,0,0,0,0,0,0,0,0,0,0,0,0,0,0,0,0,0,0,0,0,0,0,0,0,0,0,0,0,0,0,0,0,0,0,0,0,0,0,0,0,0,0,0,0,0,0,0,0,0,0,0,0,0,0,0,0,4.5939,4.594,0,4.6037,4.6038,4.6039,4.6015,4.6013,4.6011,4.6009,4.6104,4.6108,4.6113,0,0,0,0,0,0,0,0,0,0,0,0,0,4.5726,4.573,4.5939,4.594,4.5941,4.6036,4.6038,4.6039,4.6015,4.6013,4.6011,4.6009,4.6103,4.6108,4.6113,0,0,0,0,0,0,0,0,0,0,0,0,0,4.5821,4.5732,4.5939,4.5941,4.5942,4.6036,4.6038,4.6039,4.6016,4.6013,4.601,4.6007,4.6101,4.6107,4.6114,4.6209,0,0,4.6133,4.6136,0,0,0,0,0,0,0,0,4.5815,4.5828,4.594,4.5941,4.5943,4.6011,4.5997,4.6096,4.6016,4.5988,4.6009,4.6006,4.6075,4.6083,4.6108,4.6214,4.6218,4.6134,4.6138,4.614,4.6142,0,0,0,0,0,0,0,4.5809,4.5824,4.5977,4.5941,4.5943,4.5935,4.5946,4.6016,4.6046,4.599,4.5989,4.6001,4.6075,4.6102,4.611,4.6219,4.6134,4.6139,4.6143,4.6146,4.6406,4.6409,0,0,0,0,0,0,4.5802,4.5819,4.5974,4.598,4.5871,4.5941,4.5953,4.5992,4.6045,4.6051,4.6003,4.5999,4.6092,4.6102,4.6113,4.6227,4.614,4.6146,4.615,4.6403,4.6407,4.641,0,0,0,0,0,0,4.5797,4.5816,4.597,4.5899,4.5918,4.5948,4.5992,4.5995,4.6021,4.6055,4.6059,4.6025,4.609,4.6104,4.6185,4.623,4.6149,4.6155,4.64,4.6404,4.6409,4.6457,0,0,0,0,0,0,4.5791,4.5814,4.5853,4.59,4.5922,4.6043,4.5995,4.5999,4.6033,4.6029,4.6077,4.6082,4.6089,4.6176,4.6192,4.6237,4.616,4.6396,4.6402,4.6407,4.6451,4.6463,4.6472,0,0,0,0,0,4.5784,4.5862,4.5855,4.5874,4.5971,4.6046,4.6058,4.6067,4.6037,4.6074,4.6095,4.608,4.6223,4.6185,4.6202,4.625,4.6393,4.64,4.6407,4.6447,4.646,4.6472,0,0,0,0,0,0,4.5817,4.5868,4.5861,4.5957,4.5998,4.6042,4.609,4.6081,4.613,4.6124,4.613,4.6141,4.6224,4.6245,4.6202,4.6344,4.6303,4.6314,4.6328,4.6341,4.6351,4.6343,4.6165,0,0,0,0,0,4.5836,4.5895,4.5935,4.6016,4.6037,4.606,4.6093,4.6096,4.6137,4.6154,4.6181,4.622,4.6273,4.6308,4.636,4.6455,4.6463,4.6496,4.6506,4.6515,4.6523,4.6573,4.6587,4.6433,4.6433,4.6433,0,0,4.5875,4.591,4.5946,4.6023,4.6055,4.6113,4.6074,4.6138,4.618,4.6163,4.6241,4.6263,4.6306,4.6395,4.6435,4.6415,4.6568,4.6524,4.653,4.6534,4.6581,4.6596,4.6609,4.6438,4.6437,4.6436,0,0,4.5975,4.6009,4.6079,4.6112,4.616,4.6175,4.6192,4.6238,4.6251,4.6331,4.6318,4.6368,4.646,4.6492,4.652,4.663,4.6617,4.6647,4.67,4.6749,4.6761,4.6771,4.6809,4.6823,4.6656,4.6656,4.6656,0,4.6017,4.6106,4.6116,4.618,4.6214,4.6202,4.6271,4.6302,4.6364,4.6386,4.6364,4.6478,4.6507,4.6602,4.6629,4.6652,4.667,4.6641,4.6759,4.6769,4.678,4.6815,4.683,4.6659,4.6659,4.6658,4.6658,0,4.6154,4.6216,4.6266,4.6328,4.6367,4.6434,4.6451,4.6489,4.6488,4.6505,4.6584,4.6618,4.6675,4.6698,4.6698,4.6792,4.6778,4.6757,4.6715,4.6797,4.6831,4.6845,4.6664,4.6662,4.6661,4.6661,0,0,4.6278,4.6344,4.6362,4.6389,4.6442,4.6489,4.6554,4.6611,4.6642,4.6685,4.6738,4.6817,4.6797,4.6829,4.6832,4.6874,4.6957,4.6848,4.6849,4.6866,4.7061,4.7075,4.7091,4.6949,4.6952,4.6954,4.7056,0,4.6382,4.6499,4.6509,4.6613,4.6668,4.6657,4.6713,4.675,4.6767,4.6815,4.6832,4.6887,4.6859,4.6877,4.6919,4.6939,4.6996,4.6932,4.6997,4.6999,4.6985,4.7109,4.7125,4.7219,4.707,4.7072,4.7074,0,4.6519,4.6567,4.6677,4.672,4.6744,4.6795,4.6847,4.6894,4.6934,4.6943,4.6979,4.6975,4.7039,4.6997,4.7084,4.704,4.7067,4.708,4.7084,4.7089,4.704,4.7116,4.725,4.7263,4.7095,4.7093,4.7092,0,4.6596,4.6689,4.6766,4.679,4.6842,4.6878,4.6901,4.6939,4.6972,4.7017,4.7038,4.709,4.7118,4.7156,4.7166,4.7134,4.7252,4.7211,4.726,4.7259,4.7284,4.7282,4.7423,4.7304,4.7304,4.7304,4.7303,0,4.671,4.6777,4.6801,4.6848,4.6922,4.6932,4.7004,4.7025,4.7059,4.7108,4.7102,4.7148,4.7158,4.7206,4.7214,4.7284,4.7297,4.7304,4.7305,4.7304,4.7303,4.732,4.7314,4.7307,4.7307,4.7306,4.7305,0,4.6809,4.6828,4.6911,4.6954,4.6966,4.7019,4.7055,4.7099,4.7114,4.7177,4.7192,4.7216,4.7271,4.7285,4.7351,4.7356,4.7438,4.7434,4.7425,4.7424,4.7472,4.7466,4.7627,4.7648,4.7517,4.7519,4.752,0,4.688,4.6931,4.698,4.7013,4.7038,4.7092,4.7126,4.7137,4.7172,4.7222,4.7259,4.7314,4.7359,4.7447,4.7469,4.7519,4.7514,4.7567,4.7522,4.7518,4.7513,4.7509,4.7513,4.7576,4.7577,4.7578,4.7579,0,4.7003,4.7009,4.7059,4.7113,4.7153,4.7195,4.7235,4.7263,4.7278,4.7318,4.7375,4.741,4.7477,4.7531,4.7581,4.7602,4.7593,4.7594,4.7607,4.7606,4.7598,4.7601,4.7447,4.7589,4.7588,4.7588,4.7587,4.7587,4.7088,4.7133,4.7174,4.7229,4.7261,4.7298,4.7341,4.7363,4.7411,4.7468,4.7471,4.7532,4.757,4.7636,4.766,4.7707,4.7691,4.7711,4.7716,4.772,4.7724,4.7592,4.7717,4.7716,4.7716,4.7716,4.7716,0,4.7209,4.7235,4.7286,4.7343,4.7386,4.7375,4.7418,4.7454,4.7509,4.7546,4.759,4.7654,4.7706,4.7732,4.7783,4.7815,4.7812,4.7828,4.7825,4.783,4.7736,4.7719,4.783,4.783,4.783,4.783,4.783,4.783,4.7277,4.7352,4.7363,4.7451,4.7476,4.7538,4.7563,4.7597,4.7626,4.7699,4.7742,4.776,4.7791,4.7844,4.789,4.7896,4.7914,4.7932,4.7936,4.7848,4.7836,4.7825,4.7809,4.7937,4.7937,4.8025,4.8026,4.8026]}]]